TimeCDT,TemperatureF,Dew PointF,Humidity,Sea Level PressureIn,VisibilityMPH,Wind Direction,Wind SpeedMPH,Gust SpeedMPH,PrecipitationIn,Events,Conditions,WindDirDegrees,DateUTC
12:15 AM,73.4,68.0,83,29.95,10.0,North,-9999.0,-,N/A,,Mostly Cloudy,0,2012-10-14 05:15:00
12:35 AM,73.4,68.0,83,29.96,10.0,NW,9.2,-,N/A,,Overcast,310,2012-10-14 05:35:00
12:55 AM,73.4,68.0,83,29.96,10.0,WNW,9.2,-,N/A,,Mostly Cloudy,290,2012-10-14 05:55:00
1:15 AM,73.4,66.2,78,29.95,10.0,WSW,4.6,-,N/A,,Scattered Clouds,250,2012-10-14 06:15:00
1:35 AM,73.4,66.2,78,29.95,10.0,West,5.8,-,N/A,,Overcast,260,2012-10-14 06:35:00
1:55 AM,71.6,66.2,83,29.96,10.0,SW,4.6,-,N/A,,Overcast,220,2012-10-14 06:55:00
2:15 AM,71.6,64.4,78,29.97,10.0,SW,4.6,-,N/A,,Overcast,230,2012-10-14 07:15:00
2:35 AM,73.4,64.4,73,29.97,10.0,SW,4.6,-,N/A,,Overcast,220,2012-10-14 07:35:00
2:55 AM,71.6,62.6,73,29.97,10.0,WSW,4.6,-,N/A,,Overcast,250,2012-10-14 07:55:00
3:15 AM,69.8,62.6,78,29.97,10.0,WSW,3.5,-,N/A,,Overcast,250,2012-10-14 08:15:00
3:35 AM,68.0,62.6,83,29.98,10.0,Calm,Calm,-,N/A,,Overcast,0,2012-10-14 08:35:00
3:55 AM,64.4,60.8,88,29.98,10.0,Calm,Calm,-,N/A,,Overcast,0,2012-10-14 08:55:00
4:15 AM,66.2,62.6,88,29.98,10.0,Calm,Calm,-,N/A,,Overcast,0,2012-10-14 09:15:00
4:35 AM,62.6,60.8,94,29.99,10.0,Calm,Calm,-,N/A,,Mostly Cloudy,0,2012-10-14 09:35:00
4:55 AM,62.6,59.0,88,30.00,9.0,Calm,Calm,-,N/A,,Mostly Cloudy,0,2012-10-14 09:55:00
5:15 AM,62.6,60.8,94,30.00,10.0,NNE,3.5,-,N/A,,Scattered Clouds,20,2012-10-14 10:15:00
5:35 AM,62.6,60.8,94,30.01,10.0,North,4.6,-,N/A,,Clear,10,2012-10-14 10:35:00
6:15 AM,59.0,57.2,94,30.04,5.0,SE,4.6,-,N/A,,Clear,130,2012-10-14 11:15:00
6:35 AM,59.0,57.2,94,30.05,5.0,SE,3.5,-,N/A,,Clear,130,2012-10-14 11:35:00
6:55 AM,57.2,57.2,100,30.06,5.0,SSE,3.5,-,N/A,,Clear,160,2012-10-14 11:55:00
7:15 AM,57.2,57.2,100,30.07,5.0,Calm,Calm,-,N/A,,Clear,0,2012-10-14 12:15:00
7:35 AM,57.2,57.2,100,30.07,9.0,Calm,Calm,-,N/A,,Clear,0,2012-10-14 12:35:00
7:55 AM,55.4,55.4,100,30.08,2.0,Calm,Calm,-,N/A,,Clear,0,2012-10-14 12:55:00
8:15 AM,59.0,57.2,94,30.09,5.0,Calm,Calm,-,N/A,,Clear,0,2012-10-14 13:15:00
8:35 AM,59.0,59.0,100,30.10,7.0,Calm,Calm,-,N/A,,Clear,0,2012-10-14 13:35:00
8:55 AM,60.8,59.0,94,30.11,10.0,NW,4.6,-,N/A,,Clear,320,2012-10-14 13:55:00
9:15 AM,64.4,53.6,68,30.12,10.0,NW,5.8,-,N/A,,Clear,320,2012-10-14 14:15:00
9:35 AM,66.2,51.8,60,30.13,10.0,NW,6.9,-,N/A,,Clear,320,2012-10-14 14:35:00
9:55 AM,68.0,46.4,46,30.13,10.0,NNW,8.1,-,N/A,,Clear,330,2012-10-14 14:55:00
10:15 AM,69.8,46.4,43,30.14,10.0,NNW,10.4,-,N/A,,Clear,330,2012-10-14 15:15:00
10:35 AM,71.6,46.4,41,30.14,10.0,NNW,12.7,-,N/A,,Clear,330,2012-10-14 15:35:00
10:55 AM,73.4,46.4,38,30.14,10.0,NNW,12.7,-,N/A,,Clear,330,2012-10-14 15:55:00
11:15 AM,73.4,46.4,38,30.14,10.0,NNW,10.4,-,N/A,,Clear,330,2012-10-14 16:15:00
11:35 AM,75.2,48.2,38,30.14,10.0,North,9.2,-,N/A,,Clear,350,2012-10-14 16:35:00
11:55 AM,75.2,44.6,34,30.14,10.0,North,9.2,-,N/A,,Clear,10,2012-10-14 16:55:00
12:15 PM,77.0,46.4,34,30.14,10.0,NNW,11.5,-,N/A,,Clear,330,2012-10-14 17:15:00
12:35 PM,77.0,46.4,34,30.14,10.0,North,9.2,-,N/A,,Clear,360,2012-10-14 17:35:00
12:55 PM,77.0,46.4,34,30.14,10.0,North,11.5,16.1,N/A,,Clear,350,2012-10-14 17:55:00
1:15 PM,78.8,46.4,32,30.13,10.0,North,10.4,17.3,N/A,,Clear,360,2012-10-14 18:15:00
1:35 PM,80.6,46.4,30,30.12,10.0,NNW,17.3,20.7,N/A,,Clear,330,2012-10-14 18:35:00
1:55 PM,80.6,46.4,30,30.12,10.0,NNW,15.0,18.4,N/A,,Clear,340,2012-10-14 18:55:00
2:15 PM,80.6,46.4,30,30.11,10.0,North,13.8,21.9,N/A,,Clear,350,2012-10-14 19:15:00
2:35 PM,80.6,44.6,28,30.10,10.0,North,15.0,-,N/A,,Clear,350,2012-10-14 19:35:00
2:55 PM,82.4,44.6,26,30.10,10.0,North,15.0,20.7,N/A,,Clear,10,2012-10-14 19:55:00
3:15 PM,82.4,41.0,23,30.10,10.0,North,12.7,19.6,N/A,,Clear,360,2012-10-14 20:15:00
3:35 PM,82.4,41.0,23,30.10,10.0,North,11.5,21.9,N/A,,Clear,360,2012-10-14 20:35:00
3:55 PM,82.4,41.0,23,30.09,10.0,North,11.5,19.6,N/A,,Clear,360,2012-10-14 20:55:00
4:15 PM,82.4,39.2,21,30.09,10.0,NNE,11.5,21.9,N/A,,Clear,30,2012-10-14 21:15:00
4:35 PM,82.4,39.2,21,30.09,10.0,NNE,10.4,-,N/A,,Clear,20,2012-10-14 21:35:00
4:55 PM,82.4,37.4,20,30.09,10.0,NNE,12.7,23.0,N/A,,Clear,20,2012-10-14 21:55:00
5:15 PM,80.6,37.4,21,30.09,10.0,NNE,11.5,19.6,N/A,,Clear,20,2012-10-14 22:15:00
5:35 PM,80.6,39.2,23,30.09,10.0,NNE,12.7,18.4,N/A,,Clear,20,2012-10-14 22:35:00
5:55 PM,80.6,37.4,21,30.09,10.0,NNE,9.2,-,N/A,,Clear,20,2012-10-14 22:55:00
6:15 PM,78.8,39.2,24,30.09,10.0,North,9.2,16.1,N/A,,Clear,10,2012-10-14 23:15:00
6:35 PM,77.0,39.2,26,30.09,10.0,NNE,5.8,-,N/A,,Clear,30,2012-10-14 23:35:00
6:55 PM,75.2,39.2,27,30.09,10.0,NNE,4.6,-,N/A,,Clear,20,2012-10-14 23:55:00
7:15 PM,73.4,41.0,31,30.10,10.0,NNE,4.6,-,N/A,,Clear,20,2012-10-15 00:15:00
7:35 PM,71.6,41.0,33,30.10,10.0,NNE,4.6,-,N/A,,Clear,20,2012-10-15 00:35:00
7:55 PM,71.6,41.0,33,30.10,10.0,NNE,4.6,-,N/A,,Clear,20,2012-10-15 00:55:00
8:15 PM,62.6,42.8,48,30.11,10.0,Calm,Calm,-,N/A,,Clear,0,2012-10-15 01:15:00
8:35 PM,68.0,41.0,37,30.11,10.0,NNE,4.6,-,N/A,,Clear,30,2012-10-15 01:35:00
8:55 PM,64.4,41.0,42,30.12,10.0,NE,4.6,-,N/A,,Clear,50,2012-10-15 01:55:00
9:15 PM,60.8,44.6,55,30.13,10.0,Calm,Calm,-,N/A,,Partly Cloudy,0,2012-10-15 02:15:00
9:35 PM,57.2,42.8,59,30.14,10.0,North,3.5,-,N/A,,Partly Cloudy,360,2012-10-15 02:35:00
9:55 PM,57.2,44.6,63,30.14,9.0,Calm,Calm,-,N/A,,Partly Cloudy,0,2012-10-15 02:55:00
10:15 PM,57.2,44.6,63,30.14,10.0,Calm,Calm,-,N/A,,Partly Cloudy,0,2012-10-15 03:15:00
10:35 PM,57.2,44.6,63,30.15,10.0,NE,4.6,-,N/A,,Clear,40,2012-10-15 03:35:00
10:55 PM,59.0,44.6,59,30.16,10.0,NE,3.5,-,N/A,,Clear,40,2012-10-15 03:55:00
11:15 PM,57.2,44.6,63,30.16,10.0,North,-9999.0,-,N/A,,Clear,0,2012-10-15 04:15:00
11:35 PM,57.2,46.4,67,30.16,10.0,North,-9999.0,-,N/A,,Clear,0,2012-10-15 04:35:00
11:55 PM,53.6,44.6,72,30.16,10.0,North,-9999.0,-,N/A,,Partly Cloudy,0,2012-10-15 04:55:00